Regional Weather Roundup
Issued by NWS Glasgow, MT

Home | Current Version | Previous Version | Text Only | Print | Product List | Glossary On
Versions: 1 2 3 4 5 6 7 8 9 10 11 12 13 14 15 16 17 18 19 20 21 22 23 24 25 26
000
ASUS45 KGGW 271115
RWRGGW
HOURLY REGIONAL WEATHER ROUNDUP FOR NORTHEAST MONTANA
NATIONAL WEATHER SERVICE GLASGOW MONTANA
500 AM MDT FRI MAY 27 2016

NOTE: "FAIR" INDICATES FEW OR NO CLOUDS BELOW 12,000 FEET WITH NO
SIGNIFICANT WEATHER AND/OR OBSTRUCTIONS TO VISISBILITY.

NORTHEAST MONTANA


CITY           SKY/WX    TMP DP  RH WIND       PRES   REMARKS
GLASGOW        CLOUDY    48  47  96 S3        29.89R
PLENTYWOOD       N/A     46  45  96 NW3         N/A
WOLF POINT     PTCLDY    46  43  89 CALM      29.90R
JORDAN           N/A     52  49  89 NE8       29.88R
WINNETT          N/A     46  44  93 SE3         N/A
SIDNEY         CLEAR     46  46 100 N6        29.87S
GLENDIVE       PTCLDY    46  45  93 NE6       29.89R
MALTA            N/A     44  44 100 S1          N/A
SCOBEY           N/A     44  38  79 CALM      29.89R HAZE
OPHEIM           N/A     46  45  93 E2        29.76R

FORT PECK REPORTS


CITY           SKY/WX    TMP DP  RH WIND       PRES   REMARKS
FORT PECK        N/A     49  48  97 NE6         N/A
THE PINES        N/A     51  49  92 NE5         N/A

SOUTHEAST MONTANA


CITY           SKY/WX    TMP DP  RH WIND       PRES   REMARKS
BILLINGS       CLOUDY    48  44  86 SW8       29.91F
MILES CITY     CLOUDY    52  48  86 W7        29.85F
BAKER          PTCLDY    37  35  92 SE5       29.88R
LIVINGSTON     PTCLDY    39  36  89 VRB3      29.93S

CENTRAL MONTANA


CITY           SKY/WX    TMP DP  RH WIND       PRES   REMARKS
HAVRE          CLEAR     46  44  93 E3        29.86S
LEWISTOWN      PTCLDY    40  37  89 SE7       29.90S
GREAT FALLS    CLEAR     40  39  97 S3        29.87S
CUT BANK       CLOUDY    48  43  82 VRB3      29.84F
HELENA         CLOUDY    49  44  83 SW5       29.90F
BUTTE          CLOUDY    43  40  89 S5        29.97F
BOZEMAN        CLOUDY    43  40  89 S6        29.93S

WESTERN MONTANA


CITY           SKY/WX    TMP DP  RH WIND       PRES   REMARKS
MISSOULA       MOCLDY    48  46  93 W3        29.93F
KALISPELL      NOT AVBL

NORTH DAKOTA


CITY           SKY/WX    TMP DP  RH WIND       PRES   REMARKS
WILLISTON      CLOUDY    49  47  93 N3        29.88R
DICKINSON      MOCLDY    40  38  93 CALM      29.85R
MINOT          CLOUDY    56  53  90 W5        29.83S
BISMARCK       CLEAR     48  47  96 NW8       29.83S FOG

SOUTHERN SASKATCHEWAN


CITY           SKY/WX    TMP DP  RH WIND       PRES   REMARKS
REGINA         MOCLDY    45  45 100 NW6       29.86S
ESTEVAN        CLOUDY    50  50 100 W9        29.84S
SWIFT CURRENT  CLEAR     45  43  93 SE7       29.87S





USA.gov is the U.S. government's official web portal to all federal, state and local government web resources and services.